K6OUA-11 Weather Reports


Display with metric or nautical units.
time (UTC)temp
F
wind
direction
speed
MPH
gust
MPH
rain 1hr
in
rain 24hr
in
rain mn
in
humidity
%
barometer
mb
20260510182939 72 272 8.0 13.0 0.00 0.00 0.00 61
20260510182737 71 282 10.0 12.0 0.00 0.00 0.00 62
20260510182535 71 299 4.0 12.0 0.00 0.00 0.00 61
20260510182333 71 274 9.0 12.0 0.00 0.00 0.00 62
20260510182131 71 275 7.0 11.0 0.00 0.00 0.00 62
20260510181929 71 268 8.0 11.0 0.00 0.00 0.00 62
20260510181727 71 271 5.0 11.0 0.00 0.00 0.00 63
20260510181525 71 268 5.0 11.0 0.00 0.00 0.00 62
20260510181323 71 279 7.0 11.0 0.00 0.00 0.00 63
20260510181121 70 264 8.0 12.0 0.00 0.00 0.00 64
20260510180717 70 282 7.0 11.0 0.00 0.00 0.00 64
20260510180516 70 281 8.0 11.0 0.00 0.00 0.00 64
20260510180314 70 267 10.0 12.0 0.00 0.00 0.00 64
20260510175910 69 291 8.0 12.0 0.00 0.00 0.00 65
20260510175707 69 277 9.0 10.0 0.00 0.00 0.00 64
20260510175506 69 275 6.0 10.0 0.00 0.00 0.00 64
20260510175306 70 286 6.0 10.0 0.00 0.00 0.00 64
20260510175101 70 272 7.0 10.0 0.00 0.00 0.00 64
20260510174900 70 262 7.0 10.0 0.00 0.00 0.00 65
20260510174656 70 267 7.0 9.0 0.00 0.00 0.00 64
20260510174456 69 274 8.0 9.0 0.00 0.00 0.00 64
20260510174254 70 272 7.0 9.0 0.00 0.00 0.00 64
20260510173647 68 281 8.0 9.0 0.00 0.00 0.00 67
20260510173446 68 255 4.0 9.0 0.00 0.00 0.00 68
20260510173245 68 292 4.0 9.0 0.00 0.00 0.00 70
20260510173046 67 278 8.0 9.0 0.00 0.00 0.00 69
20260510172840 67 281 5.0 9.0 0.00 0.00 0.00 69
20260510172639 68 295 5.0 10.0 0.00 0.00 0.00 69
20260510172437 68 277 7.0 10.0 0.00 0.00 0.00 71
20260510172235 67 278 8.0 9.0 0.00 0.00 0.00 71
20260510172033 67 303 5.0 9.0 0.00 0.00 0.00 71
20260510171831 66 296 6.0 9.0 0.00 0.00 0.00 73
20260510171629 67 278 6.0 9.0 0.00 0.00 0.00 72
20260510171428 66 271 6.0 9.0 0.00 0.00 0.00 72
20260510171225 66 281 6.0 8.0 0.00 0.00 0.00 72
20260510171023 66 316 4.0 8.0 0.00 0.00 0.00 74
20260510170620 66 305 6.0 9.0 0.00 0.00 0.00 74
20260510170420 65 254 0.0 9.0 0.00 0.00 0.00 78
20260510170216 65 286 6.0 7.0 0.00 0.00 0.00 76
20260510170013 65 293 7.0 7.0 0.00 0.00 0.00 76
20260510165810 65 261 2.0 7.0 0.00 0.00 0.00 80
20260510165408 64 313 4.0 7.0 0.00 0.00 0.00 80
20260510165206 64 291 5.0 8.0 0.00 0.00 0.00 82
20260510165004 63 292 4.0 8.0 0.00 0.00 0.00 83
20260510164803 63 319 2.0 5.0 0.00 0.00 0.00 82
20260510164601 63 272 4.0 5.0 0.00 0.00 0.00 86
20260510164359 62 233 2.0 5.0 0.00 0.00 0.00 88
20260510164159 61 281 3.0 5.0 0.00 0.00 0.00 89
20260510163953 61 305 3.0 5.0 0.00 0.00 0.00 90
20260510163751 60 284 1.0 6.0 0.00 0.00 0.00 92
20260510163348 60 291 4.0 6.0 0.00 0.00 0.00 92
20260510162743 59 293 3.0 7.0 0.00 0.00 0.00 95
20260510162542 59 255 5.0 7.0 0.00 0.00 0.00 96
20260510162340 58 257 1.0 7.0 0.00 0.00 0.00 96
20260510162138 58 261 2.0 6.0 0.00 0.00 0.00 96
20260510161936 58 293 6.0 6.0 0.00 0.00 0.00 97
20260510161733 58 292 5.0 5.0 0.00 0.00 0.00 97
20260510161330 57 219 1.0 5.0 0.00 0.00 0.00 97
20260510161128 57 291 5.0 6.0 0.00 0.00 0.00 97
20260510160926 57 250 0.0 6.0 0.00 0.00 0.00 97
20260510160724 57 210 0.0 5.0 0.00 0.00 0.00 97
20260510160523 56 237 0.0 5.0 0.00 0.00 0.00 97
20260510160119 56 289 2.0 6.0 0.00 0.00 0.00 97
20260510155917 56 293 3.0 6.0 0.00 0.00 0.00 97
20260510155715 56 326 0.0 5.0 0.00 0.00 0.00 97
20260510155513 55 275 2.0 5.0 0.00 0.00 0.00 97
20260510155311 55 277 5.0 4.0 0.00 0.00 0.00 97
20260510155108 55 288 3.0 4.0 0.00 0.00 0.00 97
20260510154907 55 272 2.0 4.0 0.00 0.00 0.00 97
20260510154705 55 310 2.0 4.0 0.00 0.00 0.00 97
20260510154503 55 239 0.0 4.0 0.00 0.00 0.00 97
20260510154303 54 270 1.0 3.0 0.00 0.00 0.00 97
20260510154100 54 288 3.0 3.0 0.00 0.00 0.00 97
20260510153858 54 274 3.0 3.0 0.00 0.00 0.00 97
20260510153655 54 255 0.0 4.0 0.00 0.00 0.00 97
20260510153454 54 279 0.0 4.0 0.00 0.00 0.00 97
20260510153050 54 267 0.0 5.0 0.00 0.00 0.00 97
20260510152848 53 296 3.0 5.0 0.00 0.00 0.00 97
20260510152646 53 293 1.0 4.0 0.00 0.00 0.00 97
20260510152242 53 275 3.0 5.0 0.00 0.00 0.00 97
20260510152041 53 264 2.0 5.0 0.00 0.00 0.00 97
20260510151839 53 279 2.0 5.0 0.00 0.00 0.00 97
20260510151637 53 247 0.0 3.0 0.00 0.00 0.00 97
20260510151435 53 274 1.0 3.0 0.00 0.00 0.00 97
20260510151233 53 289 0.0 4.0 0.00 0.00 0.00 97
20260510151031 53 289 0.0 4.0 0.00 0.00 0.00 97
20260510150829 53 284 2.0 4.0 0.00 0.00 0.00 97
20260510150627 53 285 3.0 3.0 0.00 0.00 0.00 97
20260510150425 53 267 0.0 3.0 0.00 0.00 0.00 97
20260510150022 52 288 0.0 3.0 0.00 0.00 0.00 97
20260510145820 52 291 2.0 3.0 0.00 0.00 0.00 97
20260510145618 52 293 2.0 5.0 0.00 0.00 0.00 97
20260510145416 52 296 1.0 5.0 0.00 0.00 0.00 97
20260510145214 52 284 4.0 0.0 0.00 0.00 0.00 97
20260510145012 52 300 2.0 0.0 0.00 0.00 0.00 97
20260510144810 52 291 0.0 4.0 0.00 0.00 0.00 97
20260510144609 52 291 0.0 4.0 0.00 0.00 0.00 97
20260510144407 52 291 0.0 4.0 0.00 0.00 0.00 97
20260510144205 52 281 0.0 4.0 0.00 0.00 0.00 97
20260510143801 52 292 3.0 5.0 0.00 0.00 0.00 97
20260510143559 52 286 0.0 5.0 0.00 0.00 0.00 97
20260510143357 52 288 1.0 5.0 0.00 0.00 0.00 97
20260510143155 52 293 3.0 5.0 0.00 0.00 0.00 97
20260510142953 52 305 3.0 5.0 0.00 0.00 0.00 97
20260510142750 52 298 3.0 4.0 0.00 0.00 0.00 97
20260510142549 52 251 0.0 4.0 0.00 0.00 0.00 97
20260510142348 52 305 1.0 4.0 0.00 0.00 0.00 97
20260510142144 52 298 2.0 0.0 0.00 0.00 0.00 97
20260510141740 52 264 0.0 0.0 0.00 0.00 0.00 97
20260510141539 52 264 0.0 0.0 0.00 0.00 0.00 97
20260510140530 52 264 0.0 0.0 0.00 0.00 0.00 97
20260510140328 52 264 0.0 0.0 0.00 0.00 0.00 97
20260510140127 52 264 0.0 0.0 0.00 0.00 0.00 97
20260510135924 52 264 0.0 0.0 0.00 0.00 0.00 97
20260510135722 52 264 0.0 0.0 0.00 0.00 0.00 97
20260510135521 52 264 0.0 0.0 0.00 0.00 0.00 97
20260510135319 52 264 0.0 0.0 0.00 0.00 0.00 97
20260510135117 52 264 0.0 0.0 0.00 0.00 0.00 97
20260510134915 52 264 0.0 0.0 0.00 0.00 0.00 97
20260510134713 52 264 0.0 0.0 0.00 0.00 0.00 97
20260510134511 52 264 0.0 0.0 0.00 0.00 0.00 97
20260510134309 52 264 0.0 0.0 0.00 0.00 0.00 97
20260510134107 52 264 0.0 0.0 0.00 0.00 0.00 97
20260510133905 52 264 0.0 0.0 0.00 0.00 0.00 97
20260510133704 52 264 0.0 0.0 0.00 0.00 0.00 97
20260510133058 52 264 0.0 0.0 0.00 0.00 0.00 97
20260510132855 52 264 0.0 0.0 0.00 0.00 0.00 97
20260510132452 52 264 0.0 0.0 0.00 0.00 0.00 97
20260510132250 52 264 0.0 0.0 0.00 0.00 0.00 97
20260510132048 52 264 0.0 0.0 0.00 0.00 0.00 97
20260510131644 52 264 0.0 0.0 0.00 0.00 0.00 97
20260510131443 52 264 0.0 0.0 0.00 0.00 0.00 97
20260510131241 52 264 0.0 0.0 0.00 0.00 0.00 97
20260510130635 52 264 0.0 0.0 0.00 0.00 0.00 97
20260510130433 52 264 0.0 0.0 0.00 0.00 0.00 97
20260510130231 52 264 0.0 0.0 0.00 0.00 0.00 97
20260510130029 52 264 0.0 0.0 0.00 0.00 0.00 97
20260510125827 52 264 0.0 0.0 0.00 0.00 0.00 97
20260510125626 52 264 0.0 0.0 0.00 0.00 0.00 97
20260510125222 52 264 0.0 0.0 0.00 0.00 0.00 97
20260510124816 52 264 0.0 0.0 0.00 0.00 0.00 97
20260510124616 52 264 0.0 0.0 0.00 0.00 0.00 97
20260510124414 52 264 0.0 0.0 0.00 0.00 0.00 97
20260510124212 52 264 0.0 0.0 0.00 0.00 0.00 97
20260510124010 52 264 0.0 0.0 0.00 0.00 0.00 97
20260510123808 52 264 0.0 0.0 0.00 0.00 0.00 97
20260510123405 52 264 0.0 0.0 0.00 0.00 0.00 97
20260510123202 52 264 0.0 0.0 0.00 0.00 0.00 97
20260510122759 52 264 0.0 0.0 0.00 0.00 0.00 97
20260510122557 52 264 0.0 0.0 0.00 0.00 0.00 97
20260510122153 52 264 0.0 0.0 0.00 0.00 0.00 97
20260510121951 52 264 0.0 0.0 0.00 0.00 0.00 97
20260510121751 52 264 0.0 0.0 0.00 0.00 0.00 97
20260510121548 52 264 0.0 0.0 0.00 0.00 0.00 97
20260510121345 52 264 0.0 0.0 0.00 0.00 0.00 97
20260510121144 52 264 0.0 0.0 0.00 0.00 0.00 97
20260510120940 52 264 0.0 0.0 0.00 0.00 0.00 97
20260510120740 52 264 0.0 0.0 0.00 0.00 0.00 97
20260510120629 52 264 0.0 0.0 0.00 0.00 0.00 97
20260510120538 52 264 0.0 0.0 0.00 0.00 0.00 97
20260510120336 52 264 0.0 0.0 0.00 0.00 0.00 97
20260510120134 52 264 0.0 4.0 0.00 0.00 0.00 97
20260510115932 52 264 0.0 4.0 0.00 0.00 0.00 97
20260510115730 52 264 0.0 5.0 0.00 0.00 0.00 97
20260510115528 52 296 1.0 5.0 0.00 0.00 0.00 97
20260510115326 52 289 3.0 5.0 0.00 0.00 0.00 97
20260510115124 52 291 2.0 3.0 0.00 0.00 0.00 97
20260510114923 52 246 0.0 3.0 0.00 0.00 0.00 97
20260510114721 52 292 1.0 4.0 0.00 0.00 0.00 97
20260510114519 52 298 2.0 4.0 0.00 0.00 0.00 97
20260510114317 52 309 3.0 4.0 0.00 0.00 0.00 97
20260510114115 52 309 3.0 4.0 0.00 0.00 0.00 97
20260510113913 52 310 2.0 4.0 0.00 0.00 0.00 97
20260510113711 52 305 3.0 4.0 0.00 0.00 0.00 97
20260510113509 52 296 3.0 4.0 0.00 0.00 0.00 97
20260510113106 52 309 3.0 3.0 0.00 0.00 0.00 97
20260510112903 52 298 2.0 3.0 0.00 0.00 0.00 97
20260510112458 52 291 2.0 3.0 0.00 0.00 0.00 96
20260510112258 52 282 1.0 2.0 0.00 0.00 0.00 96
20260510111854 52 284 0.0 2.0 0.00 0.00 0.00 96
20260510111651 52 285 1.0 2.0 0.00 0.00 0.00 96
20260510111450 52 285 2.0 2.0 0.00 0.00 0.00 96
20260510111047 52 288 2.0 5.0 0.00 0.00 0.00 96
20260510110845 52 286 2.0 5.0 0.00 0.00 0.00 96
20260510110641 53 288 2.0 5.0 0.00 0.00 0.00 96
20260510110439 53 270 4.0 5.0 0.00 0.00 0.00 96
20260510110239 53 281 3.0 4.0 0.00 0.00 0.00 96
20260510110037 53 299 2.0 4.0 0.00 0.00 0.00 96
20260510105834 53 293 2.0 4.0 0.00 0.00 0.00 96
20260510105432 53 296 3.0 4.0 0.00 0.00 0.00 96
20260510104826 53 303 4.0 4.0 0.00 0.00 0.00 96
20260510104624 53 303 3.0 5.0 0.00 0.00 0.00 96
20260510104422 53 299 4.0 5.0 0.00 0.00 0.00 96
20260510104218 53 293 4.0 4.0 0.00 0.00 0.00 95
20260510104018 53 300 3.0 4.0 0.00 0.00 0.00 95
20260510103816 53 289 4.0 0.0 0.00 0.00 0.00 95
20260510103614 53 289 3.0 0.0 0.00 0.00 0.00 95
20260510103211 53 282 0.0 0.0 0.00 0.00 0.00 95
20260510103008 53 282 0.0 0.0 0.00 0.00 0.00 95
20260510102807 53 282 0.0 0.0 0.00 0.00 0.00 95
20260510102605 54 282 0.0 0.0 0.00 0.00 0.00 95
20260510102403 54 282 0.0 0.0 0.00 0.00 0.00 95
20260510102201 54 282 0.0 0.0 0.00 0.00 0.00 95
20260510101959 54 282 0.0 0.0 0.00 0.00 0.00 95
20260510101757 54 282 0.0 2.0 0.00 0.00 0.00 95
20260510101555 54 282 0.0 2.0 0.00 0.00 0.00 95
20260510101353 54 282 0.0 2.0 0.00 0.00 0.00 95
20260510101151 54 282 0.0 3.0 0.00 0.00 0.00 95
20260510100950 54 292 1.0 3.0 0.00 0.00 0.00 95
20260510100748 54 292 2.0 4.0 0.00 0.00 0.00 95
20260510100546 54 292 2.0 4.0 0.00 0.00 0.00 95
20260510100344 54 286 2.0 4.0 0.00 0.00 0.00 95
20260510100213 54 281 2.0 3.0 0.00 0.00 0.00 95
20260510100142 54 281 2.0 3.0 0.00 0.00 0.00 95
20260510095940 54 300 2.0 3.0 0.00 0.00 0.00 95
20260510095738 54 303 3.0 4.0 0.00 0.00 0.00 95
20260510095536 54 305 2.0 4.0 0.00 0.00 0.00 95
20260510095334 54 305 2.0 4.0 0.00 0.00 0.00 95
20260510095132 54 306 2.0 3.0 0.00 0.00 0.00 95
20260510094728 54 309 3.0 0.0 0.00 0.00 0.00 94
20260510094526 54 289 0.0 0.0 0.00 0.00 0.00 95
20260510094325 54 289 0.0 0.0 0.00 0.00 0.00 94
20260510093919 54 289 0.0 0.0 0.00 0.00 0.00 94
20260510093719 54 289 0.0 0.0 0.00 0.00 0.00 93
20260510093517 54 289 0.0 0.0 0.00 0.00 0.00 93
20260510093315 54 289 0.0 0.0 0.00 0.00 0.00 93
20260510093113 54 289 0.0 0.0 0.00 0.00 0.00 93
20260510092911 54 289 0.0 0.0 0.00 0.00 0.00 93
20260510092710 55 289 0.0 0.0 0.00 0.00 0.00 93
20260510092506 55 289 0.0 0.0 0.00 0.00 0.00 93
20260510092307 55 289 0.0 0.0 0.00 0.00 0.00 93
20260510092104 55 289 0.0 0.0 0.00 0.00 0.00 93
20260510091902 55 289 0.0 0.0 0.00 0.00 0.00 93
20260510091256 55 289 0.0 0.0 0.00 0.00 0.00 93
20260510091054 55 289 0.0 0.0 0.00 0.00 0.00 93
20260510090852 55 289 0.0 0.0 0.00 0.00 0.00 93
20260510090649 55 289 0.0 0.0 0.00 0.00 0.00 93
20260510090448 55 289 0.0 0.0 0.00 0.00 0.00 93
20260510090246 55 289 0.0 0.0 0.00 0.00 0.00 93
20260510090043 55 289 0.0 0.0 0.00 0.00 0.00 93
20260510085843 55 289 0.0 0.0 0.00 0.00 0.00 93
20260510085641 55 289 0.0 0.0 0.00 0.00 0.00 93
20260510085439 55 289 0.0 0.0 0.00 0.00 0.00 93
20260510085237 55 289 0.0 0.0 0.00 0.00 0.00 93
20260510085035 55 289 0.0 0.0 0.00 0.00 0.00 92
20260510084630 55 289 0.0 0.0 0.00 0.00 0.00 92
20260510084428 55 289 0.0 0.0 0.00 0.00 0.00 92
20260510084227 55 289 0.0 0.0 0.00 0.00 0.00 92
20260510084026 55 289 0.0 0.0 0.00 0.00 0.00 92
20260510083823 56 289 0.0 0.0 0.00 0.00 0.00 92
20260510083622 56 289 0.0 0.0 0.00 0.00 0.00 92
20260510083420 56 289 0.0 0.0 0.00 0.00 0.00 92
20260510083016 56 289 0.0 0.0 0.00 0.00 0.00 92
20260510082814 56 289 0.0 0.0 0.00 0.00 0.00 91
20260510082613 56 289 0.0 0.0 0.00 0.00 0.00 91
20260510082411 56 289 0.0 0.0 0.00 0.00 0.00 91
20260510082208 56 289 0.0 0.0 0.00 0.00 0.00 91
20260510082006 57 289 0.0 0.0 0.00 0.00 0.00 91
20260510081603 56 289 0.0 0.0 0.00 0.00 0.00 91
20260510081401 56 289 0.0 0.0 0.00 0.00 0.00 91
20260510081159 57 289 0.0 0.0 0.00 0.00 0.00 91
20260510080957 56 289 0.0 0.0 0.00 0.00 0.00 91
20260510080755 57 289 0.0 0.0 0.00 0.00 0.00 91
20260510080552 56 289 0.0 0.0 0.00 0.00 0.00 91
20260510080350 57 289 0.0 0.0 0.00 0.00 0.00 90
20260510080149 56 289 0.0 0.0 0.00 0.00 0.00 90
20260510075342 57 289 0.0 0.0 0.00 0.00 0.00 90
20260510075140 57 289 0.0 0.0 0.00 0.00 0.00 90
20260510074938 57 289 0.0 0.0 0.00 0.00 0.00 90
20260510074736 57 289 0.0 0.0 0.00 0.00 0.00 90
20260510074534 57 289 0.0 0.0 0.00 0.00 0.00 90
20260510074331 57 289 0.0 0.0 0.00 0.00 0.00 89
20260510074130 57 289 0.0 0.0 0.00 0.00 0.00 89
20260510073727 57 289 0.0 0.0 0.00 0.00 0.00 89
20260510073524 57 289 0.0 0.0 0.00 0.00 0.00 89
20260510073323 57 289 0.0 0.0 0.00 0.00 0.00 89
20260510073121 57 289 0.0 0.0 0.00 0.00 0.00 89
20260510072917 57 289 0.0 0.0 0.00 0.00 0.00 89
20260510072717 57 289 0.0 0.0 0.00 0.00 0.00 89
20260510072513 57 289 0.0 0.0 0.00 0.00 0.00 89
20260510072111 57 289 0.0 0.0 0.00 0.00 0.00 89
20260510071909 57 289 0.0 0.0 0.00 0.00 0.00 89
20260510071506 57 289 0.0 0.0 0.00 0.00 0.00 89
20260510071304 57 289 0.0 0.0 0.00 0.00 0.00 88
20260510071102 57 289 0.0 0.0 0.00 0.00 0.00 88
20260510070900 57 289 0.0 0.0 0.00 0.00 0.00 88
20260510070656 57 289 0.0 0.0 0.00 0.00 0.00 88
20260510070456 58 289 0.0 0.0 0.00 0.00 0.00 88
20260510070252 58 289 0.0 0.0 0.00 0.00 0.00 88
20260510070052 58 289 0.0 0.0 0.00 0.00 0.00 88
20260510065849 58 289 0.0 0.0 0.00 0.00 0.00 88
20260510065649 58 289 0.0 0.0 0.00 0.00 0.00 88
20260510065447 58 289 0.0 0.0 0.00 0.00 0.00 88
20260510065243 58 289 0.0 0.0 0.00 0.00 0.00 87
20260510065042 58 289 0.0 0.0 0.00 0.00 0.00 87
20260510064639 58 289 0.0 0.0 0.00 0.00 0.00 87
20260510064437 58 289 0.0 0.0 0.00 0.00 0.00 87
20260510064235 58 289 0.0 0.0 0.00 0.00 0.00 87
20260510064033 58 289 0.0 0.0 0.00 0.00 0.00 87
20260510063831 58 289 0.0 0.0 0.00 0.00 0.00 87
20260510063630 58 289 0.0 0.0 0.00 0.00 0.00 87
20260510063427 58 289 0.0 0.0 0.00 0.00 0.00 87
20260510063225 58 289 0.0 0.0 0.00 0.00 0.00 87
20260510063023 58 289 0.0 0.0 0.00 0.00 0.00 87
20260510062822 58 289 0.0 0.0 0.00 0.00 0.00 87
20260510062620 58 289 0.0 0.0 0.00 0.00 0.00 87
20260510062416 58 289 0.0 0.0 0.00 0.00 0.00 87
20260510062014 58 289 0.0 0.0 0.00 0.00 0.00 88
20260510061812 58 289 0.0 0.0 0.00 0.00 0.00 87
20260510061613 58 289 0.0 0.0 0.00 0.00 0.00 87
20260510061610 58 289 0.0 0.0 0.00 0.00 0.00 87
20260510061409 58 289 0.0 0.0 0.00 0.00 0.00 87
20260510061205 58 289 0.0 0.0 0.00 0.00 0.00 87
20260510061005 58 289 0.0 0.0 0.00 0.00 0.00 87
20260510060802 58 289 0.0 0.0 0.00 0.00 0.00 87
20260510060400 58 289 0.0 0.0 0.00 0.00 0.00 86
20260510060157 59 289 0.0 0.0 0.00 0.00 0.00 86
20260510055956 59 289 0.0 0.0 0.00 0.00 0.00 86
20260510055753 59 289 0.0 0.0 0.00 0.00 0.00 86
20260510055550 59 289 0.0 0.0 0.00 0.00 0.00 86
20260510054944 59 289 0.0 0.0 0.00 0.00 0.00 87
20260510054744 59 289 0.0 0.0 0.00 0.00 0.00 87
20260510054542 59 289 0.0 0.0 0.00 0.00 0.00 87
20260510054138 59 289 0.0 0.0 0.00 0.00 0.00 87
20260510053937 59 289 0.0 0.0 0.00 0.00 0.00 87
20260510053734 59 289 0.0 0.0 0.00 0.00 0.00 87
20260510053331 59 289 0.0 0.0 0.00 0.00 0.00 86
20260510053128 59 289 0.0 0.0 0.00 0.00 0.00 86
20260510052926 59 289 0.0 0.0 0.00 0.00 0.00 86
20260510052725 59 289 0.0 0.0 0.00 0.00 0.00 86
20260510052523 59 289 0.0 0.0 0.00 0.00 0.00 86
20260510052321 59 289 0.0 0.0 0.00 0.00 0.00 86
20260510052119 59 289 0.0 0.0 0.00 0.00 0.00 86
20260510051917 59 289 0.0 0.0 0.00 0.00 0.00 85
20260510051715 59 289 0.0 0.0 0.00 0.00 0.00 85
20260510051513 59 289 0.0 0.0 0.00 0.00 0.00 85
20260510051311 59 289 0.0 0.0 0.00 0.00 0.00 85
20260510051108 59 289 0.0 0.0 0.00 0.00 0.00 85
20260510050504 60 289 0.0 0.0 0.00 0.00 0.00 84
20260510050302 59 289 0.0 0.0 0.00 0.00 0.00 84
20260510050100 60 289 0.0 0.0 0.00 0.00 0.00 84
20260510045858 60 289 0.0 0.0 0.00 0.00 0.00 84
20260510045656 60 289 0.0 0.0 0.00 0.00 0.00 83
20260510045252 60 289 0.0 0.0 0.00 0.00 0.00 83
20260510045050 60 289 0.0 0.0 0.00 0.00 0.00 83
20260510044849 60 289 0.0 0.0 0.00 0.00 0.00 83
20260510044647 60 289 0.0 0.0 0.00 0.00 0.00 83
20260510044445 60 289 0.0 0.0 0.00 0.00 0.00 83
20260510044243 61 289 0.0 0.0 0.00 0.00 0.00 83
20260510043839 61 289 0.0 0.0 0.00 0.00 0.00 83
20260510043637 61 289 0.0 0.0 0.00 0.00 0.00 83
20260510043233 61 289 0.0 0.0 0.00 0.00 0.00 83
20260510043030 61 289 0.0 0.0 0.00 0.00 0.00 83
20260510042830 61 289 0.0 0.0 0.00 0.00 0.00 83
20260510042426 61 289 0.0 0.0 0.00 0.00 0.00 83
20260510042224 61 289 0.0 0.0 0.00 0.00 0.00 83
20260510042022 61 289 0.0 0.0 0.00 0.00 0.00 83
20260510041618 61 289 0.0 0.0 0.00 0.00 0.00 83
20260510041416 61 289 0.0 0.0 0.00 0.00 0.00 83
20260510041214 61 289 0.0 0.0 0.00 0.00 0.00 83
20260510041012 61 289 0.0 0.0 0.00 0.00 0.00 83
20260510040810 61 289 0.0 2.0 0.00 0.00 0.00 83
20260510040642 61 289 0.0 2.0 0.00 0.00 0.00 83
20260510040607 61 289 0.0 2.0 0.00 0.00 0.00 83
20260510040406 61 289 0.0 2.0 0.00 0.00 0.00 83
20260510040205 61 289 0.0 2.0 0.00 0.00 0.00 83
20260510035559 61 271 0.0 2.0 0.00 0.00 0.00 83
20260510035357 61 303 1.0 2.0 0.00 0.00 0.00 83
20260510035155 61 293 1.0 2.0 0.00 0.00 0.00 84
20260510034952 61 289 1.0 2.0 0.00 0.00 0.00 83
20260510034549 61 295 2.0 0.0 0.00 0.00 0.00 82
20260510034145 61 264 0.0 0.0 0.00 0.00 0.00 81
20260510033540 62 264 0.0 0.0 0.00 0.00 0.00 81
20260510033338 62 264 0.0 0.0 0.00 0.00 0.00 81
20260510033136 62 264 0.0 0.0 0.00 0.00 0.00 81
20260510032934 62 264 0.0 0.0 0.00 0.00 0.00 81
20260510032732 62 264 0.0 0.0 0.00 0.00 0.00 81
20260510032530 62 264 0.0 0.0 0.00 0.00 0.00 81
20260510032328 62 264 0.0 0.0 0.00 0.00 0.00 81
20260510032126 62 264 0.0 4.0 0.00 0.00 0.00 81
20260510031924 62 264 0.0 4.0 0.00 0.00 0.00 81
20260510031722 62 264 0.0 4.0 0.00 0.00 0.00 81
20260510031521 62 284 2.0 4.0 0.00 0.00 0.00 81
20260510031318 62 292 3.0 5.0 0.00 0.00 0.00 81
20260510031116 62 295 3.0 5.0 0.00 0.00 0.00 81
20260510030915 62 289 3.0 5.0 0.00 0.00 0.00 81
20260510030713 62 291 3.0 4.0 0.00 0.00 0.00 81
20260510030511 62 282 3.0 4.0 0.00 0.00 0.00 80
20260510030108 63 299 3.0 5.0 0.00 0.00 0.00 80
20260510025906 63 302 3.0 5.0 0.00 0.00 0.00 80
20260510025704 63 289 3.0 6.0 0.00 0.00 0.00 79
20260510025502 63 279 4.0 6.0 0.00 0.00 0.00 79
20260510025300 63 270 5.0 6.0 0.00 0.00 0.00 79
20260510025058 63 291 2.0 6.0 0.00 0.00 0.00 79
20260510024856 63 261 6.0 6.0 0.00 0.00 0.00 79
20260510024654 63 275 5.0 7.0 0.00 0.00 0.00 78
20260510024452 63 278 5.0 7.0 0.00 0.00 0.00 78
20260510024250 64 265 5.0 7.0 0.00 0.00 0.00 77
20260510024048 64 289 5.0 7.0 0.00 0.00 0.00 77
20260510023846 64 289 4.0 7.0 0.00 0.00 0.00 77
20260510023645 64 272 5.0 7.0 0.00 0.00 0.00 76
20260510023241 65 272 6.0 8.0 0.00 0.00 0.00 76
20260510023039 65 285 6.0 8.0 0.00 0.00 0.00 75
20260510022837 65 277 4.0 8.0 0.00 0.00 0.00 75
20260510022633 65 262 7.0 8.0 0.00 0.00 0.00 75
20260510022231 65 274 4.0 8.0 0.00 0.00 0.00 74
20260510022030 65 278 4.0 8.0 0.00 0.00 0.00 74
20260510021827 66 279 6.0 8.0 0.00 0.00 0.00 74
20260510021626 66 271 6.0 9.0 0.00 0.00 0.00 73
20260510021423 66 270 6.0 9.0 0.00 0.00 0.00 73
20260510021222 66 274 8.0 8.0 0.00 0.00 0.00 73
20260510021019 66 271 4.0 8.0 0.00 0.00 0.00 73
20260510020818 66 279 4.0 9.0 0.00 0.00 0.00 72
20260510020616 66 265 5.0 9.0 0.00 0.00 0.00 72
20260510020414 66 285 6.0 9.0 0.00 0.00 0.00 72
20260510020010 67 270 6.0 8.0 0.00 0.00 0.00 72
20260510015809 67 271 6.0 9.0 0.00 0.00 0.00 71
20260510015605 67 285 6.0 9.0 0.00 0.00 0.00 71
20260510015403 67 270 7.0 9.0 0.00 0.00 0.00 71
20260510015203 67 277 6.0 10.0 0.00 0.00 0.00 71
20260510014557 68 274 6.0 8.0 0.00 0.00 0.00 70
20260510013953 68 284 6.0 9.0 0.00 0.00 0.00 69
20260510013749 68 265 6.0 9.0 0.00 0.00 0.00 68
20260510013548 68 295 6.0 9.0 0.00 0.00 0.00 68
20260510013346 69 281 6.0 9.0 0.00 0.00 0.00 68
20260510012940 69 271 8.0 8.0 0.00 0.00 0.00 67
20260510012739 69 270 8.0 10.0 0.00 0.00 0.00 67
20260510012536 69 248 6.0 10.0 0.00 0.00 0.00 67
20260510012336 69 267 8.0 10.0 0.00 0.00 0.00 66
20260510012134 69 291 8.0 9.0 0.00 0.00 0.00 66
20260510011932 69 281 8.0 9.0 0.00 0.00 0.00 65
20260510011730 70 262 6.0 10.0 0.00 0.00 0.00 65
20260510011528 70 139 4.0 10.0 0.00 0.00 0.00 65
20260510011326 70 271 6.0 10.0 0.00 0.00 0.00 65
20260510010921 70 279 4.0 12.0 0.00 0.00 0.00 64
20260510010721 70 277 6.0 10.0 0.00 0.00 0.00 64
20260510010518 71 268 8.0 10.0 0.00 0.00 0.00 63
20260510010317 71 270 7.0 11.0 0.00 0.00 0.00 62
20260510010113 71 255 7.0 11.0 0.00 0.00 0.00 63
20260510005913 71 279 8.0 11.0 0.00 0.00 0.00 62
20260510005711 71 279 4.0 12.0 0.00 0.00 0.00 64
20260510005307 70 285 9.0 13.0 0.00 0.00 0.00 64
20260510005103 70 264 9.0 13.0 0.00 0.00 0.00 64
20260510004903 70 271 6.0 13.0 0.00 0.00 0.00 63
20260510004659 70 271 9.0 12.0 0.00 0.00 0.00 63
20260510004257 70 272 8.0 12.0 0.00 0.00 0.00 63
20260510004055 71 274 9.0 12.0 0.00 0.00 0.00 62
20260510003853 71 270 6.0 12.0 0.00 0.00 0.00 62
20260510003651 71 254 8.0 13.0 0.00 0.00 0.00 62
20260510003448 71 257 6.0 13.0 0.00 0.00 0.00 62
20260510003247 71 281 9.0 14.0 0.00 0.00 0.00 61
20260510003045 71 274 8.0 14.0 0.00 0.00 0.00 61
20260510002642 72 279 10.0 14.0 0.00 0.00 0.00 61
20260510002439 72 265 9.0 14.0 0.00 0.00 0.00 61
20260510002036 72 271 8.0 11.0 0.00 0.00 0.00 60
20260510001834 72 278 6.0 11.0 0.00 0.00 0.00 60
20260510001226 72 264 8.0 12.0 0.00 0.00 0.00 60
20260510001026 72 255 9.0 12.0 0.00 0.00 0.00 60
20260510000622 73 262 9.0 14.0 0.00 0.00 0.00 60
20260510000219 73 257 11.0 11.0 0.00 0.00 0.00 58
20260510000016 73 291 4.0 11.0 0.00 0.00 0.00 58
20260509235814 74 279 7.0 11.0 0.00 0.00 0.00 58
20260509235006 73 258 5.0 14.0 0.00 0.00 0.00 58
20260509234804 73 271 10.0 13.0 0.00 0.00 0.00 59
20260509234400 73 267 11.0 13.0 0.00 0.00 0.00 59
20260509234157 73 277 12.0 13.0 0.00 0.00 0.00 58
20260509233553 73 264 9.0 13.0 0.00 0.00 0.00 58
20260509233149 73 272 9.0 13.0 0.00 0.00 0.00 58
20260509232947 73 267 9.0 13.0 0.00 0.00 0.00 57
20260509232745 74 262 8.0 13.0 0.00 0.00 0.00 58
20260509232543 73 257 7.0 13.0 0.00 0.00 0.00 58
20260509232341 74 264 7.0 13.0 0.00 0.00 0.00 57
20260509232139 74 255 9.0 13.0 0.00 0.00 0.00 57
20260509231937 73 274 6.0 13.0 0.00 0.00 0.00 56
20260509231533 74 250 12.0 12.0 0.00 0.00 0.00 56
20260509231331 74 261 2.0 12.0 0.00 0.00 0.00 57
20260509231127 74 295 5.0 12.0 0.00 0.00 0.00 57
20260509230927 74 267 6.0 12.0 0.00 0.00 0.00 56
20260509230523 74 258 9.0 13.0 0.00 0.00 0.00 56
20260509230321 74 251 7.0 13.0 0.00 0.00 0.00 57
20260509230119 73 271 9.0 14.0 0.00 0.00 0.00 57
20260509225917 74 253 10.0 14.0 0.00 0.00 0.00 57
20260509225715 74 246 12.0 12.0 0.00 0.00 0.00 57
20260509225513 74 277 8.0 12.0 0.00 0.00 0.00 57
20260509225311 74 261 7.0 13.0 0.00 0.00 0.00 57
20260509224907 74 274 8.0 13.0 0.00 0.00 0.00 56
20260509224706 75 289 10.0 13.0 0.00 0.00 0.00 56
20260509224504 75 271 10.0 13.0 0.00 0.00 0.00 56
20260509224301 75 261 10.0 12.0 0.00 0.00 0.00 55
20260509223857 75 267 13.0 12.0 0.00 0.00 0.00 56
20260509223655 75 277 7.0 11.0 0.00 0.00 0.00 56
20260509223454 75 268 8.0 11.0 0.00 0.00 0.00 57
20260509223049 75 262 9.0 13.0 0.00 0.00 0.00 56
20260509222846 74 248 8.0 13.0 0.00 0.00 0.00 58
20260509222242 73 247 12.0 14.0 0.00 0.00 0.00 59
20260509222039 73 281 8.0 14.0 0.00 0.00 0.00 58
20260509221839 74 278 12.0 14.0 0.00 0.00 0.00 59
20260509221636 73 291 10.0 15.0 0.00 0.00 0.00 58
20260509221438 74 270 8.0 15.0 0.00 0.00 0.00 57
20260509221232 73 271 12.0 15.0 0.00 0.00 0.00 58
20260509221030 75 278 10.0 15.0 0.00 0.00 0.00 57
20260509220829 74 243 10.0 15.0 0.00 0.00 0.00 58
20260509220627 74 268 7.0 13.0 0.00 0.00 0.00 59
20260509220425 74 258 12.0 13.0 0.00 0.00 0.00 57
20260509220223 74 270 10.0 14.0 0.00 0.00 0.00 57
20260509215819 74 289 9.0 13.0 0.00 0.00 0.00 58
20260509215415 74 271 4.0 13.0 0.00 0.00 0.00 56
20260509215212 75 243 9.0 16.0 0.00 0.00 0.00 57
20260509215009 74 261 8.0 16.0 0.00 0.00 0.00 59
20260509214807 73 274 13.0 13.0 0.00 0.00 0.00 58
20260509214608 73 262 6.0 13.0 0.00 0.00 0.00 58
20260509214405 74 258 12.0 13.0 0.00 0.00 0.00 58
20260509213801 74 286 8.0 16.0 0.00 0.00 0.00 58
20260509213556 74 257 11.0 16.0 0.00 0.00 0.00 57
20260509212749 73 264 12.0 14.0 0.00 0.00 0.00 57
20260509211538 75 281 9.0 12.0 0.00 0.00 0.00 57
20260509211336 75 246 7.0 12.0 0.00 0.00 0.00 56
20260509211133 75 281 8.0 15.0 0.00 0.00 0.00 58
20260509210930 75 264 2.0 15.0 0.00 0.00 0.00 58
20260509210528 74 234 8.0 17.0 0.00 0.00 0.00 59
20260509210326 73 262 10.0 17.0 0.00 0.00 0.00 59
20260509205922 75 267 6.0 13.0 0.00 0.00 0.00 58
20260509205720 74 278 6.0 15.0 0.00 0.00 0.00 59
20260509205517 74 258 8.0 15.0 0.00 0.00 0.00 59
20260509205316 74 257 8.0 15.0 0.00 0.00 0.00 59
20260509205114 74 270 5.0 15.0 0.00 0.00 0.00 57
20260509204912 74 275 4.0 15.0 0.00 0.00 0.00 58
20260509204710 74 255 10.0 13.0 0.00 0.00 0.00 59
20260509204509 74 298 5.0 13.0 0.00 0.00 0.00 59
20260509204103 74 260 10.0 14.0 0.00 0.00 0.00 58
20260509203903 74 258 9.0 14.0 0.00 0.00 0.00 59
20260509203459 74 274 5.0 14.0 0.00 0.00 0.00 59
20260509203257 74 262 11.0 14.0 0.00 0.00 0.00 59
20260509203055 74 264 10.0 14.0 0.00 0.00 0.00 59
20260509202853 74 248 10.0 14.0 0.00 0.00 0.00 59
20260509202651 74 278 2.0 14.0 0.00 0.00 0.00 60
20260509202247 74 262 12.0 15.0 0.00 0.00 0.00 58
20260509202045 74 251 8.0 15.0 0.00 0.00 0.00 59
20260509201843 73 282 5.0 15.0 0.00 0.00 0.00 60
20260509201641 73 312 8.0 15.0 0.00 0.00 0.00 60
20260509201439 73 281 14.0 15.0 0.00 0.00 0.00 60
20260509201237 73 233 6.0 13.0 0.00 0.00 0.00 61
20260509201035 73 255 9.0 13.0 0.00 0.00 0.00 59
20260509200833 73 271 11.0 13.0 0.00 0.00 0.00 61
20260509200631 72 277 10.0 12.0 0.00 0.00 0.00 58
20260509200227 73 261 10.0 13.0 0.00 0.00 0.00 60
20260509195822 73 265 9.0 13.0 0.00 0.00 0.00 59
20260509195419 73 243 6.0 13.0 0.00 0.00 0.00 59
20260509195218 73 260 7.0 11.0 0.00 0.00 0.00 58
20260509195016 73 275 8.0 11.0 0.00 0.00 0.00 59
20260509194815 73 247 1.0 11.0 0.00 0.00 0.00 58
20260509194612 73 261 8.0 11.0 0.00 0.00 0.00 59
20260509194410 73 73 0.0 11.0 0.00 0.00 0.00 58
20260509194004 72 272 3.0 12.0 0.00 0.00 0.00 61
20260509193804 71 277 7.0 10.0 0.00 0.00 0.00 61
20260509193602 72 274 7.0 10.0 0.00 0.00 0.00 60
20260509193400 72 270 4.0 10.0 0.00 0.00 0.00 59
20260509193158 72 261 10.0 13.0 0.00 0.00 0.00 59
20260509192956 72 272 7.0 13.0 0.00 0.00 0.00 60
20260509192754 72 268 8.0 11.0 0.00 0.00 0.00 61
20260509192550 72 281 10.0 11.0 0.00 0.00 0.00 58
20260509192348 72 254 2.0 11.0 0.00 0.00 0.00 63
20260509192148 71 257 0.0 10.0 0.00 0.00 0.00 64
20260509191946 71 277 1.0 10.0 0.00 0.00 0.00 62
20260509191742 70 285 4.0 11.0 0.00 0.00 0.00 64
20260509191542 70 262 7.0 11.0 0.00 0.00 0.00 62
20260509191340 71 289 3.0 11.0 0.00 0.00 0.00 63
20260509190935 70 277 9.0 11.0 0.00 0.00 0.00 63
20260509190331 70 277 8.0 11.0 0.00 0.00 0.00 66
20260509190129 69 262 6.0 11.0 0.00 0.00 0.00 67
20260509185925 69 264 9.0 11.0 0.00 0.00 0.00 67
20260509185724 69 261 6.0 12.0 0.00 0.00 0.00 67
20260509185523 69 270 9.0 12.0 0.00 0.00 0.00 68
20260509185321 69 237 3.0 12.0 0.00 0.00 0.00 68
20260509185117 69 260 8.0 11.0 0.00 0.00 0.00 68
20260509184917 68 262 9.0 11.0 0.00 0.00 0.00 70
20260509184715 68 281 8.0 11.0 0.00 0.00 0.00 70
20260509184511 68 289 7.0 11.0 0.00 0.00 0.00 70
20260509184311 67 317 4.0 11.0 0.00 0.00 0.00 72
20260509184108 68 260 7.0 11.0 0.00 0.00 0.00 72
20260509183907 67 278 7.0 11.0 0.00 0.00 0.00 72
20260509183504 67 262 7.0 10.0 0.00 0.00 0.00 73
20260509183302 66 323 3.0 11.0 0.00 0.00 0.00 73